NC9W-13 Weather Reports


time (UTC)temp
C
wind
direction
speed
KPH
gust
KPH
rain 1hr
cm
rain 24hr
cm
rain mn
cm
humidity
%
barometer
mb
20260509053503 13 0 0.0 0.0 0.00 0.08 0.00 71 1008.5
20260509053003 13 0 0.0 0.0 0.00 0.08 0.00 71 1008.4
20260509052503 13 0 0.0 0.0 0.00 0.08 0.00 70 1008.4
20260509052003 13 0 0.0 0.0 0.00 0.08 0.00 70 1008.4
20260509051718 13 0 0.0 0.0 0.00 0.08 0.00 69 1008.4
20260509051003 13 0 0.0 0.0 0.00 0.08 0.00 68 1008.4
20260509050503 13 0 0.0 0.0 0.00 0.08 0.00 68 1008.4
20260509050003 13 0 0.0 0.0 0.00 0.08 0.00 68 1008.5
20260509045503 14 0 0.0 0.0 0.00 0.08 0.00 67 1008.5
20260509045003 14 0 0.0 0.0 0.00 0.08 0.00 66 1008.4
20260509044503 14 0 0.0 0.0 0.00 0.08 0.00 66 1008.4
20260509044003 14 0 0.0 0.0 0.00 0.08 0.00 67 1008.3
20260509043503 14 0 0.0 0.0 0.00 0.08 0.00 67 1008.3
20260509043003 14 0 0.0 0.0 0.00 0.08 0.00 67 1008.4
20260509042503 14 0 0.0 0.0 0.00 0.08 0.00 67 1008.3
20260509042003 13 0 0.0 0.0 0.00 0.08 0.00 67 1008.3
20260509041718 13 0 0.0 0.0 0.00 0.08 0.00 69 1008.4
20260509041217 13 0 0.0 0.0 0.00 0.08 0.00 70 1008.4
20260509040503 13 0 0.0 0.0 0.00 0.08 0.00 68 1008.5
20260509040004 13 0 0.0 0.0 0.00 0.08 0.00 68 1008.6
20260509035717 13 0 0.0 0.0 0.00 0.08 0.00 68 1008.7
20260509035216 14 0 0.0 0.0 0.00 0.08 0.00 67 1008.8
20260509034503 14 0 0.0 0.0 0.00 0.08 0.00 67 1008.7
20260509034216 14 0 0.0 0.0 0.00 0.08 0.00 68 1008.6
20260509033503 14 0 0.0 0.0 0.00 0.08 0.00 66 1008.6
20260509033003 14 0 0.0 0.0 0.00 0.08 0.00 65 1008.7
20260509032503 14 0 0.0 0.0 0.00 0.08 0.00 64 1008.7
20260509032003 15 0 0.0 0.0 0.00 0.08 0.00 64 1008.9
20260509031503 15 0 0.0 0.0 0.00 0.08 0.00 64 1009.0
20260509031218 15 0 0.0 0.0 0.00 0.08 0.00 64 1009.1
20260509030503 15 0 0.0 0.0 0.00 0.08 0.00 64 1009.1
20260509030003 15 0 0.0 0.0 0.00 0.08 0.00 63 1009.1
20260509025717 15 0 0.0 0.0 0.00 0.08 0.00 63 1009.2
20260509025003 15 0 0.0 0.0 0.00 0.08 0.00 63 1009.3
20260509024717 15 0 0.0 0.0 0.00 0.08 0.00 63 1009.3
20260509024003 15 0 0.0 0.0 0.00 0.08 0.00 64 1009.3
20260509023503 15 0 0.0 0.0 0.00 0.08 0.00 65 1009.3
20260509023003 15 0 0.0 0.0 0.00 0.08 0.00 66 1009.3
20260509022503 15 0 0.0 0.0 0.00 0.08 0.00 66 1009.3
20260509022003 15 0 0.0 0.0 0.00 0.08 0.00 64 1009.2
20260509021503 15 0 0.0 0.0 0.00 0.08 0.00 63 1009.2
20260509021003 15 0 0.0 0.0 0.00 0.08 0.00 64 1009.3
20260509020503 15 0 0.0 0.0 0.00 0.08 0.00 62 1009.4
20260509020003 15 0 0.0 0.0 0.00 0.08 0.00 61 1009.3
20260509015503 15 0 0.0 0.0 0.00 0.08 0.00 61 1009.3
20260509015003 15 0 0.0 0.0 0.00 0.08 0.00 61 1009.2
20260509014503 15 0 0.0 0.0 0.00 0.08 0.00 61 1009.2
20260509014218 15 0 0.0 0.0 0.00 0.08 0.00 60 1009.3
20260509013503 15 0 0.0 0.0 0.00 0.08 0.00 59 1009.3
20260509013003 15 0 0.0 0.0 0.00 0.08 0.00 59 1009.3
20260509012503 15 0 0.0 0.0 0.00 0.08 0.00 59 1009.3
20260509012003 15 0 0.0 0.0 0.00 0.08 0.00 59 1009.2
20260509011503 16 0 0.0 0.0 0.00 0.08 0.00 58 1009.2
20260509011003 16 0 0.0 0.0 0.00 0.08 0.00 57 1009.3
20260509010716 16 0 0.0 0.0 0.00 0.08 0.00 57 1009.3
20260509010217 16 0 0.0 0.0 0.00 0.08 0.00 59 1009.2
20260509005503 16 0 0.0 0.0 0.00 0.08 0.00 58 1009.2
20260509005003 16 0 0.0 0.0 0.00 0.08 0.00 58 1009.2
20260509004503 17 210 0.0 6.4 0.00 0.08 0.00 57 1009.2
20260509004217 17 210 0.0 6.4 0.00 0.08 0.00 56 1009.2
20260509003503 17 0 0.0 0.0 0.00 0.08 0.00 55 1009.3
20260509003003 17 0 0.0 0.0 0.00 0.08 0.00 54 1009.2
20260509002503 17 0 0.0 0.0 0.00 0.08 0.00 54 1009.3
20260509002003 18 0 0.0 0.0 0.00 0.08 0.00 54 1009.3
20260509001503 18 0 0.0 0.0 0.00 0.08 0.00 54 1009.3
20260509001003 18 0 0.0 0.0 0.00 0.08 0.00 51 1009.3
20260509000718 18 210 0.0 6.4 0.00 0.08 0.00 52 1009.3
20260509000003 18 210 0.0 6.4 0.00 0.08 0.00 51 1009.3
20260508235718 18 210 0.0 6.4 0.00 0.08 0.00 52 1009.4
20260508235003 18 210 0.0 6.4 0.00 0.08 0.00 53 1009.4
20260508234503 18 210 0.0 9.7 0.00 0.08 0.00 51 1009.5
20260508234003 19 210 0.0 9.7 0.00 0.08 0.00 51 1009.5
20260508233503 19 0 0.0 0.0 0.00 0.08 0.00 50 1009.5
20260508233003 19 210 0.0 9.7 0.00 0.08 0.00 50 1009.5
20260508232503 19 210 0.0 9.7 0.00 0.08 0.00 49 1009.5
20260508232003 20 210 0.0 6.4 0.00 0.08 0.00 48 1009.6
20260508231503 20 210 0.0 6.4 0.00 0.08 0.00 49 1009.7
20260508231003 20 210 0.0 6.4 0.00 0.08 0.00 49 1009.8
20260508230503 20 210 0.0 6.4 0.00 0.08 0.00 48 1009.8
20260508230003 20 210 0.0 9.7 0.00 0.08 0.00 47 1009.9
20260508225503 20 210 3.2 12.9 0.00 0.08 0.00 49 1009.9
20260508225003 20 210 3.2 12.9 0.00 0.08 0.00 47 1009.8
20260508224503 20 210 3.2 19.3 0.00 0.08 0.00 47 1009.7
20260508224003 20 210 3.2 19.3 0.00 0.08 0.00 46 1009.7
20260508223717 20 210 0.0 12.9 0.00 0.08 0.00 47 1009.7
20260508223003 20 210 0.0 6.4 0.00 0.08 0.00 47 1009.6
20260508222503 20 210 3.2 9.7 0.00 0.08 0.00 47 1009.7
20260508222003 20 210 3.2 22.5 0.00 0.08 0.00 46 1009.6
20260508221503 21 210 0.0 22.5 0.00 0.08 0.00 47 1009.7
20260508221003 21 210 0.0 12.9 0.00 0.08 0.00 47 1009.7
20260508220503 21 210 0.0 12.9 0.00 0.08 0.00 45 1009.8
20260508220003 21 210 0.0 9.7 0.00 0.08 0.00 46 1009.7
20260508215503 21 210 0.0 9.7 0.00 0.08 0.00 49 1009.7
20260508215216 21 210 0.0 9.7 0.00 0.08 0.00 45 1009.7
20260508214503 21 210 3.2 9.7 0.00 0.08 0.00 46 1009.5
20260508214003 21 210 3.2 9.7 0.00 0.08 0.00 46 1009.6
20260508213503 21 210 0.0 9.7 0.00 0.08 0.00 45 1009.7
20260508213003 21 210 0.0 9.7 0.00 0.08 0.00 48 1009.8
20260508212503 21 210 0.0 6.4 0.00 0.08 0.00 44 1009.7
20260508212003 21 210 0.0 6.4 0.00 0.08 0.00 44 1009.8
20260508211503 21 210 0.0 6.4 0.00 0.08 0.00 47 1009.8
20260508211003 21 210 3.2 9.7 0.00 0.08 0.00 42 1009.9
20260508210503 21 210 0.0 9.7 0.00 0.08 0.00 51 1010.0
20260508210003 21 210 0.0 6.4 0.00 0.08 0.00 46 1010.0
20260508205503 21 210 0.0 6.4 0.00 0.08 0.00 44 1010.0
20260508205003 21 210 3.2 16.1 0.00 0.08 0.00 45 1010.1
20260508204503 21 210 3.2 16.1 0.00 0.08 0.00 46 1009.9
20260508204003 21 210 3.2 9.7 0.00 0.08 0.00 44 1010.1
20260508203503 21 210 3.2 19.3 0.00 0.08 0.00 46 1010.3
20260508203218 21 210 3.2 19.3 0.00 0.08 0.00 45 1010.4
20260508202503 22 210 3.2 19.3 0.00 0.08 0.00 43 1010.5
20260508202218 22 210 3.2 9.7 0.00 0.08 0.00 44 1010.5
20260508201503 22 210 3.2 6.4 0.00 0.08 0.00 44 1010.8
20260508201003 22 210 3.2 9.7 0.00 0.08 0.00 42 1010.9
20260508200503 22 210 3.2 9.7 0.00 0.08 0.00 43 1011.0
20260508200003 22 210 3.2 9.7 0.00 0.08 0.00 40 1011.0
20260508195503 22 210 3.2 9.7 0.00 0.08 0.00 46 1011.2
20260508195218 22 210 0.0 9.7 0.00 0.08 0.00 47 1011.2
20260508194503 22 210 0.0 6.4 0.00 0.08 0.00 40 1011.3
20260508194218 22 210 0.0 9.7 0.00 0.08 0.00 40 1011.4
20260508193503 22 210 3.2 16.1 0.00 0.08 0.00 42 1011.6
20260508193003 22 210 3.2 19.3 0.00 0.08 0.00 40 1011.5
20260508192503 22 210 3.2 22.5 0.00 0.08 0.00 41 1011.5
20260508192003 22 210 3.2 22.5 0.00 0.08 0.00 40 1011.4
20260508191716 22 210 0.0 6.4 0.00 0.08 0.00 43 1011.4
20260508191217 22 210 0.0 6.4 0.00 0.08 0.00 42 1011.4
20260508190503 22 210 0.0 6.4 0.00 0.08 0.00 46 1011.4
20260508190217 22 210 3.2 19.3 0.00 0.08 0.00 41 1011.3
20260508185503 22 210 3.2 25.7 0.00 0.08 0.00 40 1011.4
20260508185217 22 210 3.2 25.7 0.00 0.08 0.00 44 1011.4
20260508184504 22 210 6.4 22.5 0.00 0.08 0.00 42 1011.4
20260508184003 22 210 6.4 22.5 0.00 0.08 0.00 38 1011.5
20260508183503 23 210 3.2 16.1 0.00 0.08 0.00 40 1011.6
20260508183217 23 210 3.2 16.1 0.00 0.08 0.00 40 1011.6
20260508182718 23 210 3.2 16.1 0.00 0.08 0.00 43 1011.6
20260508182003 23 210 3.2 19.3 0.00 0.08 0.00 41 1011.8
20260508181503 23 210 3.2 19.3 0.00 0.08 0.00 44 1011.9
20260508181217 23 210 3.2 19.3 0.00 0.08 0.00 41 1012.0
20260508180503 22 210 0.0 9.7 0.00 0.08 0.00 41 1012.2
20260508180003 22 210 0.0 6.4 0.00 0.08 0.00 39 1012.3
20260508175503 22 210 6.4 22.5 0.00 0.08 0.00 40 1012.4
20260508175003 22 210 6.4 29.0 0.00 0.08 0.00 38 1012.5
20260508174503 22 210 3.2 29.0 0.00 0.08 0.00 41 1012.6
20260508174003 22 210 6.4 29.0 0.00 0.08 0.00 41 1012.7
20260508173503 22 210 6.4 29.0 0.00 0.08 0.00 40 1012.9
20260508173003 22 210 6.4 25.7 0.00 0.08 0.00 43 1013.0
20260508172718 22 210 6.4 25.7 0.05 0.08 0.00 43 1013.1
20260508172003 23 210 0.0 6.4 0.05 0.08 0.00 41 1013.3
20260508171718 23 210 0.0 9.7 0.05 0.08 0.00 43 1013.3
20260508171216 23 210 3.2 12.9 0.05 0.08 0.00 43 1013.4
20260508170503 23 210 3.2 19.3 0.05 0.08 0.00 41 1013.5
20260508170003 23 210 3.2 19.3 0.05 0.08 0.00 42 1013.4
20260508165503 23 210 3.2 12.9 0.05 0.08 0.00 41 1013.6
20260508165216 23 210 3.2 12.9 0.05 0.08 0.00 40 1013.6
20260508164717 24 210 6.4 22.5 0.08 0.08 0.00 40 1013.7
20260508164216 25 210 6.4 22.5 0.08 0.08 0.08 38 1013.8
20260508163503 27 210 0.0 6.4 0.08 0.08 0.08 32 1013.9
20260508163218 28 210 0.0 6.4 0.08 0.08 0.08 31 1014.0
20260508162717 31 0 0.0 0.0 0.03 0.03 0.08 30 1014.1
20260508162003 32 210 0.0 3.2 0.03 0.03 0.03 30 1014.3
20260508161503 30 0 0.0 0.0 0.03 0.03 0.03 34 1014.4
20260508161003 28 0 0.0 0.0 0.03 0.03 0.03 34 1014.6
20260508160503 26 0 0.0 0.0 0.03 0.03 0.03 41 1014.7
20260508160003 23 210 0.0 3.2 0.03 0.03 0.03 43 1014.7
20260508155503 22 210 0.0 6.4 0.03 0.03 0.03 50 1014.7
20260508155003 22 210 0.0 6.4 0.00 0.00 0.00 46 1014.7
20260508154503 22 210 3.2 6.4 0.00 0.00 0.00 46 1014.8
20260508154003 22 210 0.0 6.4 0.00 0.00 0.00 45 1014.8
20260508153503 21 0 0.0 0.0 0.00 0.00 0.00 47 1014.9
20260508153003 21 0 0.0 6.4 0.00 0.00 0.00 48 1015.0
20260508152503 21 210 0.0 6.4 0.00 0.00 0.00 46 1015.0
20260508152003 21 210 0.0 9.7 0.00 0.00 0.00 48 1015.1
20260508151503 21 210 0.0 9.7 0.00 0.00 0.00 46 1015.2
20260508151003 20 0 0.0 0.0 0.00 0.00 0.00 47 1015.3
20260508150503 20 0 0.0 0.0 0.00 0.00 0.00 48 1015.3
20260508150004 20 0 0.0 0.0 0.00 0.00 0.00 48 1015.3
20260508145717 20 0 0.0 0.0 0.00 0.00 0.00 46 1015.3
20260508145003 20 210 0.0 3.2 0.00 0.00 0.00 49 1015.4
20260508144503 20 0 0.0 0.0 0.00 0.00 0.00 50 1015.4
20260508144218 20 0 0.0 0.0 0.00 0.00 0.00 50 1015.4
20260508143503 20 210 0.0 3.2 0.00 0.00 0.00 46 1015.3
20260508143003 20 210 0.0 6.4 0.00 0.00 0.00 49 1015.3
20260508142503 20 210 0.0 6.4 0.00 0.00 0.00 47 1015.4
20260508142003 20 0 0.0 0.0 0.00 0.00 0.00 50 1015.4
20260508141503 20 0 0.0 0.0 0.00 0.00 0.00 48 1015.4
20260508141003 20 0 0.0 0.0 0.00 0.00 0.00 49 1015.3
20260508140503 20 210 0.0 3.2 0.00 0.00 0.00 49 1015.3
20260508140003 19 210 0.0 3.2 0.00 0.00 0.00 49 1015.3
20260508135718 19 210 0.0 6.4 0.00 0.00 0.00 49 1015.3
20260508135003 19 210 0.0 6.4 0.00 0.00 0.00 52 1015.3
20260508134503 18 210 0.0 6.4 0.00 0.00 0.00 52 1015.4
20260508134003 18 210 0.0 6.4 0.00 0.00 0.00 54 1015.4
20260508133503 18 210 0.0 6.4 0.00 0.00 0.00 55 1015.3
20260508133003 18 210 0.0 6.4 0.00 0.00 0.00 56 1015.3
20260508132718 18 210 0.0 9.7 0.00 0.00 0.00 55 1015.3
20260508132217 17 210 0.0 9.7 0.00 0.00 0.00 56 1015.3
20260508131503 17 210 0.0 6.4 0.00 0.00 0.00 55 1015.3
20260508131003 17 210 0.0 3.2 0.00 0.00 0.00 57 1015.4
20260508130503 17 210 0.0 3.2 0.00 0.00 0.00 60 1015.4
20260508130003 16 210 0.0 3.2 0.00 0.00 0.00 61 1015.4
20260508125503 16 210 0.0 3.2 0.00 0.00 0.00 61 1015.4
20260508125003 16 0 0.0 3.2 0.00 0.00 0.00 64 1015.3
20260508124503 15 210 0.0 3.2 0.00 0.00 0.00 67 1015.4
20260508124003 13 210 0.0 6.4 0.00 0.00 0.00 69 1015.4
20260508123503 13 210 0.0 6.4 0.00 0.00 0.00 68 1015.4
20260508123003 12 210 3.2 6.4 0.00 0.00 0.00 69 1015.4
20260508122503 12 210 3.2 6.4 0.00 0.00 0.00 71 1015.4
20260508122003 11 210 3.2 6.4 0.00 0.00 0.00 71 1015.4
20260508121503 11 210 3.2 6.4 0.00 0.00 0.00 73 1015.3
20260508121003 10 210 3.2 6.4 0.00 0.00 0.00 75 1015.3
20260508120503 10 210 3.2 6.4 0.00 0.00 0.00 77 1015.3
20260508120003 8 210 3.2 6.4 0.00 0.00 0.00 79 1015.3
20260508115503 7 210 0.0 6.4 0.00 0.00 0.00 82 1015.3
20260508115003 6 210 0.0 6.4 0.00 0.00 0.00 84 1015.2
20260508114503 6 210 0.0 6.4 0.00 0.00 0.00 84 1015.2
20260508114003 6 210 3.2 6.4 0.00 0.00 0.00 85 1015.2
20260508113503 5 210 0.0 6.4 0.00 0.00 0.00 86 1015.2
20260508113003 5 210 0.0 3.2 0.00 0.00 0.00 87 1015.1
20260508112503 5 210 0.0 3.2 0.00 0.00 0.00 88 1015.0
20260508112003 5 0 0.0 0.0 0.00 0.00 0.00 88 1014.9
20260508111503 5 0 0.0 0.0 0.00 0.00 0.00 88 1014.8
20260508111003 5 0 0.0 0.0 0.00 0.00 0.00 89 1014.8
20260508110503 4 0 0.0 0.0 0.00 0.00 0.00 89 1014.7
20260508110218 4 0 0.0 0.0 0.00 0.00 0.00 89 1014.7
20260508105717 4 210 0.0 3.2 0.00 0.00 0.00 89 1014.7
20260508105003 4 210 0.0 3.2 0.00 0.00 0.00 89 1014.6
20260508104717 4 0 0.0 0.0 0.00 0.00 0.00 89 1014.6
20260508104003 4 0 0.0 0.0 0.00 0.00 0.00 89 1014.6
20260508103503 4 0 0.0 0.0 0.00 0.00 0.00 89 1014.6
20260508103003 4 0 0.0 0.0 0.00 0.00 0.00 89 1014.6
20260508102503 4 0 0.0 0.0 0.00 0.00 0.00 89 1014.5
20260508102218 4 0 0.0 0.0 0.00 0.00 0.00 89 1014.5
20260508101717 3 0 0.0 0.0 0.00 0.00 0.00 89 1014.7
20260508101218 3 0 0.0 0.0 0.00 0.00 0.00 89 1014.7
20260508055503 5 0 0.0 0.0 0.00 0.00 0.00 88 1015.0
20260508055003 5 0 0.0 0.0 0.00 0.00 0.00 87 1015.0
20260508054503 5 0 0.0 0.0 0.00 0.00 0.00 87 1015.0